Date String (YYYY-MM-DD hh:mm:ss) UTC,Instrument flags,Ambient pressure (hPa),Sample flow (lpm),Bypass flow (lpm),Sample temperature (°C),Ambient temperature (°C),ASC tube jacket temperature (°C),LED temperature (°C),Box temperature (°C),Sample RH (%),Span deviation,Mass concentration (μg/m³),Mass concentration (μg/m³),Mass concentration (μg/m³)
DateTimeUTC,F1_M11,P_M11,Q1_M11,Q2_M11,T1_M11,T2_M11,T3_M11,T4_M11,T5_M11,U1_M11,ZSPAN_M11,X0_M11,X2_M11,X1_M11
2022-04-14 06:00:00,,0822.4,5.00,0.00,22.6,21.8,00.0,31.5,24.5,10.4,0000.0,0007.81,0002.63,0001.48
2022-04-14 06:01:00,,0822.5,5.00,0.00,22.6,21.8,00.0,31.5,24.5,10.4,0000.0,0008.00,0002.66,0001.49
2022-04-14 06:02:00,,0822.5,5.00,0.00,22.6,21.8,00.0,31.5,24.4,10.4,0000.0,0008.30,0002.70,0001.51
2022-04-14 06:03:00,,0822.6,4.99,0.00,22.6,21.7,00.0,31.5,24.4,10.3,0000.0,0008.32,0002.71,0001.52
2022-04-14 06:04:00,,0822.6,5.00,0.00,22.6,21.7,00.0,31.5,24.4,10.3,0000.0,0008.26,0002.67,0001.51
2022-04-14 06:05:00,,0822.6,5.00,0.00,22.6,21.7,00.0,31.5,24.3,10.3,0000.0,0007.78,0002.64,0001.53
2022-04-14 06:06:00,,0822.6,5.00,0.00,22.6,21.7,00.0,31.5,24.3,10.2,0000.0,0007.68,0002.64,0001.53
2022-04-14 06:07:00,,0822.6,5.00,0.00,22.6,21.6,00.0,31.5,24.3,10.2,0000.0,0007.63,0002.61,0001.54
2022-04-14 06:08:00,,0822.6,5.00,0.00,22.6,21.6,00.0,31.5,24.4,10.1,0000.0,0008.07,0002.65,0001.55
2022-04-14 06:09:00,,0822.7,5.00,0.00,22.6,21.6,00.0,31.5,24.3,10.2,0000.0,0007.73,0002.68,0001.53
2022-04-14 06:10:00,,0822.7,5.00,0.00,22.5,21.6,00.0,31.5,24.3,10.2,0000.0,0007.03,0002.62,0001.53
2022-04-14 06:11:00,,0822.7,5.00,0.00,22.5,21.6,00.0,31.5,24.3,10.2,0000.0,0007.25,0002.69,0001.54
2022-04-14 06:12:00,,0822.6,5.00,0.00,22.5,21.6,00.0,31.5,24.3,10.2,0000.0,0007.38,0002.76,0001.57
2022-04-14 06:13:00,,0822.6,5.01,0.00,22.5,21.5,00.0,31.5,24.3,10.1,0000.0,0006.79,0002.79,0001.58
2022-04-14 06:14:00,,0822.6,4.99,0.00,22.5,21.5,00.0,31.5,24.3,10.1,0000.0,0006.68,0002.75,0001.56
2022-04-14 06:15:00,,0822.6,5.00,0.00,22.5,21.5,00.0,31.5,24.3,10.1,0000.0,0006.85,0002.83,0001.57
2022-04-14 06:16:00,,0822.7,4.99,0.00,22.5,21.5,00.0,31.5,24.3,10.2,0000.0,0006.85,0002.82,0001.56
2022-04-14 06:17:00,,0822.7,5.00,0.00,22.5,21.5,00.0,31.4,24.2,10.2,0000.0,0006.91,0002.81,0001.56
2022-04-14 06:18:00,,0822.7,5.00,0.00,22.4,21.5,00.0,31.4,24.2,10.2,0000.0,0006.91,0002.80,0001.56
2022-04-14 06:19:00,,0822.7,5.00,0.00,22.4,21.4,00.0,31.4,24.2,10.2,0000.0,0006.48,0002.84,0001.56
2022-04-14 06:20:00,,0822.6,5.00,0.00,22.4,21.4,00.0,31.4,24.2,10.2,0000.0,0006.06,0002.78,0001.56
2022-04-14 06:21:00,,0822.6,4.99,0.00,22.4,21.4,00.0,31.4,24.1,10.2,0000.0,0005.75,0002.71,0001.55
2022-04-14 06:22:00,,0822.6,5.00,0.00,22.4,21.4,00.0,31.4,24.1,10.2,0000.0,0005.49,0002.59,0001.52
2022-04-14 06:23:00,,0822.5,5.00,0.00,22.4,21.4,00.0,31.4,24.1,10.2,0000.0,0004.93,0002.45,0001.49
2022-04-14 06:24:00,,0822.6,5.00,0.00,22.4,21.7,00.0,31.4,24.2,10.2,0000.0,0004.84,0002.45,0001.48
2022-04-14 06:25:00,,0822.6,5.01,0.00,22.5,22.4,00.0,31.5,24.4,10.2,0000.0,0004.78,0002.45,0001.49
2022-04-14 06:26:00,,0822.7,5.00,0.00,22.6,23.1,00.0,31.5,24.6,10.1,0000.0,0004.99,0002.40,0001.48
2022-04-14 06:27:00,,0822.7,5.00,0.00,22.7,23.2,00.0,31.5,24.7,10.0,0000.0,0005.13,0002.34,0001.48
2022-04-14 06:28:00,,0822.6,4.99,0.00,22.8,22.9,00.0,31.5,24.7,10.0,0000.0,0005.01,0002.31,0001.47
2022-04-14 06:29:00,,0822.7,5.01,0.00,22.8,22.7,00.0,31.6,24.6,09.9,0000.0,0004.98,0002.34,0001.47
2022-04-14 06:30:00,,0822.7,4.99,0.00,22.7,22.5,00.0,31.6,24.6,09.8,0000.0,0004.70,0002.29,0001.45
2022-04-14 06:31:00,,0822.7,5.01,0.00,22.7,22.3,00.0,31.6,24.5,09.7,0000.0,0004.64,0002.26,0001.45
2022-04-14 06:32:00,,0822.7,5.00,0.00,22.7,22.2,00.0,31.6,24.5,09.6,0000.0,0004.62,0002.24,0001.44
2022-04-14 06:33:00,,0822.7,5.00,0.00,22.7,22.1,00.0,31.6,24.5,09.4,0000.0,0004.74,0002.25,0001.44
2022-04-14 06:34:00,,0822.7,5.00,0.00,22.7,22.0,00.0,31.6,24.5,09.3,0000.0,0004.90,0002.24,0001.42
2022-04-14 06:35:00,,0822.7,5.01,0.00,22.7,21.9,00.0,31.6,24.5,09.2,0000.0,0004.97,0002.17,0001.40
2022-04-14 06:36:00,,0822.7,4.99,0.00,22.7,21.9,00.0,31.6,24.5,09.3,0000.0,0005.33,0002.12,0001.37
2022-04-14 06:37:00,,0822.7,5.00,0.00,22.7,21.8,00.0,31.6,24.5,09.3,0000.0,0005.50,0002.15,0001.37
2022-04-14 06:38:00,,0822.7,5.01,0.00,22.6,21.8,00.0,31.6,24.5,09.5,0000.0,0005.47,0002.24,0001.36
2022-04-14 06:39:00,,0822.8,5.00,0.00,22.6,21.7,00.0,31.6,24.4,09.8,0000.0,0006.07,0002.28,0001.36
2022-04-14 06:40:00,,0822.9,5.01,0.00,22.6,21.7,00.0,31.6,24.4,09.8,0000.0,0007.54,0002.28,0001.34
2022-04-14 06:41:00,,0822.8,5.00,0.00,22.6,21.7,00.0,31.6,24.4,09.9,0000.0,0008.38,0002.26,0001.35
2022-04-14 06:42:00,,0822.7,5.00,0.00,22.6,21.6,00.0,31.6,24.4,09.8,0000.0,0008.90,0002.27,0001.34
2022-04-14 06:43:00,,0822.8,4.99,0.00,22.6,21.6,00.0,31.5,24.3,09.8,0000.0,0009.28,0002.35,0001.35
2022-04-14 06:44:00,,0822.7,5.00,0.00,22.6,21.6,00.0,31.5,24.3,09.8,0000.0,0009.26,0002.38,0001.35
2022-04-14 06:45:00,,0822.8,5.00,0.00,22.6,21.6,00.0,31.5,24.3,09.8,0000.0,0009.34,0002.42,0001.36
2022-04-14 06:46:00,,0822.7,5.00,0.00,22.5,21.5,00.0,31.5,24.3,09.8,0000.0,0009.20,0002.45,0001.36
2022-04-14 06:47:00,,0822.7,5.00,0.00,22.5,21.5,00.0,31.5,24.3,09.8,0000.0,0009.29,0002.49,0001.37
2022-04-14 06:48:00,,0822.7,5.00,0.00,22.5,21.5,00.0,31.5,24.3,09.8,0000.0,0009.06,0002.55,0001.39
2022-04-14 06:49:00,,0822.7,5.00,0.00,22.5,21.5,00.0,31.5,24.3,09.9,0000.0,0009.01,0002.49,0001.38
2022-04-14 06:50:00,,0822.7,5.01,0.00,22.5,21.5,00.0,31.5,24.3,09.9,0000.0,0008.89,0002.50,0001.37
2022-04-14 06:51:00,,0822.8,4.99,0.00,22.5,21.5,00.0,31.5,24.3,09.9,0000.0,0007.92,0002.50,0001.36
2022-04-14 06:52:00,,0822.8,5.00,0.00,22.5,21.5,00.0,31.5,24.3,09.8,0000.0,0007.03,0002.51,0001.35
2022-04-14 06:53:00,,0822.8,5.00,0.00,22.5,21.5,00.0,31.5,24.3,09.8,0000.0,0006.43,0002.50,0001.34
2022-04-14 06:54:00,,0822.7,5.00,0.00,22.5,21.5,00.0,31.5,24.3,09.6,0000.0,0006.56,0002.46,0001.32
2022-04-14 06:55:00,,0822.8,5.00,0.00,22.5,21.5,00.0,31.5,24.3,09.4,0000.0,0007.48,0002.43,0001.30
2022-04-14 06:56:00,,0823.0,5.00,0.00,22.5,21.5,00.0,31.5,24.2,09.3,0000.0,0007.56,0002.41,0001.29
2022-04-14 06:57:00,,0823.0,5.00,0.00,22.5,21.5,00.0,31.5,24.2,09.6,0000.0,0007.62,0002.41,0001.28
2022-04-14 06:58:00,,0822.9,5.00,0.00,22.4,21.5,00.0,31.4,24.2,09.7,0000.0,0007.63,0002.42,0001.28
2022-04-14 06:59:00,,0822.9,4.99,0.00,22.5,21.9,00.0,31.5,24.3,09.7,0000.0,0007.51,0002.35,0001.26
